KD4BNP Weather Reports


time (UTC)temp
C
wind
direction
speed
KPH
gust
KPH
rain 1hr
cm
rain 24hr
cm
rain mn
cm
humidity
%
barometer
mb
20220811232938 28 109 1.6 8.0 0.00 0.00 0.00 78 1016.1
20220811225945 28 249 1.6 8.0 0.00 0.00 0.00 75 1016.0
20220811215954 29 100 1.6 8.0 0.00 0.00 0.00 72 1016.2
20220811212959 29 131 1.6 11.3 0.00 0.00 0.00 74 1016.3
20220811210005 29 182 0.0 9.7 0.00 0.00 0.00 73 1016.6
20220811202959 30 37 3.2 11.3 0.00 0.00 0.00 72 1016.5
20220811200005 30 185 1.6 14.5 0.00 0.00 0.00 68 1016.5
20220811183000 33 61 8.0 19.3 0.00 0.00 0.00 62 1017.4
20220811170005 31 156 4.8 16.1 0.00 0.00 0.00 67 1018.0
20220811163000 32 151 6.4 12.9 0.00 0.00 0.00 64 1018.1
20220811145943 30 192 4.8 12.9 0.00 0.00 0.00 73 1018.7
20220811135954 29 216 6.4 11.3 0.00 0.00 0.00 77 1018.2
20220811132959 28 171 1.6 4.8 0.00 0.00 0.00 81 1018.4
20220811130004 26 264 1.6 4.8 0.00 0.00 0.00 91 1018.5
20220811120004 25 190 1.6 3.2 0.00 0.00 0.00 97 1018.2
20220811103000 23 231 0.0 0.0 0.00 0.00 0.00 97 1017.6
20220811072938 24 226 0.0 0.0 0.00 0.00 0.00 96 1018.1
20220811062948 24 226 0.0 0.0 0.00 0.00 0.00 95 1018.7
20220811055954 24 226 0.0 0.0 0.00 0.00 0.00 94 1018.9
20220811042959 25 226 0.0 0.0 0.00 0.00 0.00 93 1019.1
20220811040004 25 226 0.0 0.0 0.00 0.00 0.00 92 1019.0
20220811013001 27 180 0.0 4.8 0.00 0.00 0.00 86 1018.4